Temp
23 24 25 24 24 26 26 26 26 26 26 26 26 25 25 25 24 24 23 23 23 23 23 22 22 23 23 23 22 22 22 21 23 25 24 22 22 22 23 22 21 22 21
24 24 24 24 25 24 26 26 26 26 26 26 25 26 26 26 25 24 24 24 23 24 24 23 23 24 23 23 23 23 23 23 22 23 24 23 22 21 21 22 22 22 21
24 24 24 23 23 24 24 25 26 26 26 26 26 24 25 25 25 25 24 24 24 24 24 24 24 24 23 24 23 24 24 24 23 22 23 23 21 21 22 22 21 21 21
24 24 24 24 24 24 24 24 26 26 26 26 26 25 25 25 25 25 24 24 24 24 24 24 24 24 23 23 24 23 23 23 24 23 21 22 22 22 21 21 22 23 22
23 24 24 24 24 24 24 24 24 24 25 25 25 25 26 25 25 25 24 24 24 24 24 24 24 24 25 25 24 25 24 24 25 25 23 24 25 26 25 25 24 22 22
23 23 23 23 24 24 24 24 23 23 24 24 24 24 24 25 26 25 26 25 25 24 24 24 24 24 23 25 25 25 25 23 24 24 25 26 24 24 25 24 24 23 22
23 23 23 24 23 23 23 23 23 23 23 23 23 24 24 24 25 26 26 25 25 25 25 25 25 26 25 24 24 23 24 24 24 23 23 23 24 23 23 22 22 21 20
22 22 22 23 22 23 23 23 23 22 23 23 23 23 23 24 25 26 26 26 24 24 24 24 24 24 24 24 24 24 24 24 23 22 20 22 22 22 21 21 20 19 18
22 22 22 22 21 22 22 22 22 22 22 22 23 23 23 24 25 26 25 22 23 23 23 23 24 23 24 25 23 23 23 24 25 24 23 23 23 23 22 20 19 17 17
18 18 18 18 19 20 21 21 22 22 22 23 23 23 23 23 24 25 25 23 24 24 24 23 23 23 25 25 22 22 23 23 24 24 23 22 23 22 22 20 19 18 17
17 17 17 18 18 19 19 20 21 22 22 23 23 23 23 23 23 24 24 22 24 24 25 25 25 24 24 26 25 22 22 23 23 22 22 22 22 21 20 20 19 18 16
16 16 17 17 18 18 19 19 20 20 21 22 22 23 24 23 22 22 22 23 23 23 24 25 25 24 24 24 24 23 23 22 20 20 20 20 21 21 20 19 19 17 16
17 17 16 16 17 17 18 19 19 20 21 21 22 22 23 24 23 22 23 22 23 22 22 24 23 23 23 22 22 23 22 21 20 20 20 20 21 21 19 18 17 16 16
16 16 17 17 17 17 18 18 18 18 18 20 21 21 22 23 22 22 21 22 22 21 22 22 22 21 22 22 22 21 21 21 20 20 20 20 20 19 18 17 16 15 13
16 17 16 17 17 17 17 17 17 17 17 18 18 18 19 21 21 21 22 22 23 21 21 21 21 21 21 21 21 21 21 20 20 20 20 19 19 18 18 17 15 14 14
17 17 16 17 17 14 14 16 17 16 16 16 16 17 17 17 18 20 21 21 21 21 21 21 21 22 21 22 22 21 21 20 22 22 20 19 18 18 17 15 15 14 14
14 15 15 16 16 16 14 14 15 17 15 15 15 16 16 16 18 18 19 20 21 21 20 20 21 21 22 22 22 22 22 23 22 21 20 18 18 18 16 15 14 14 13
15 14 14 15 15 15 15 14 14 14 14 15 15 15 16 17 17 17 17 19 18 18 18 19 19 21 21 21 22 22 23 22 22 21 19 19 18 17 16 15 14 14 13
13 13 13 13 13 14 14 15 13 13 13 14 13 13 13 15 15 15 15 15 15 16 16 17 18 18 19 19 19 20 21 21 22 20 19 18 18 16 16 15 14 14 13
13 14 13 13 13 14 14 14 15 14 15 13 12 11 10 12 12 13 13 13 12 12 13 13 14 15 16 16 17 18 19 19 19 19 18 18 18 17 16 15 14 14 12
13 14 13 14 14 13 13 13 14 14 14 14 13 11 11 11 11 11 11 11 11 11 11 10 11 13 13 14 15 16 16 17 17 17 17 17 17 16 16 15 14 13 14
13 14 14 15 13 13 13 14 14 14 14 14 13 13 11 11 10 9 9 9 9 10 11 10 9 10 11 11 13 14 15 15 15 15 16 16 16 15 15 14 14 13 13
13 14 14 15 14 14 15 14 14 14 14 13 13 13 13 12 11 10 9 8 9 9 9 10 10 9 10 11 11 12 14 15 15 15 15 15 15 14 14 13 13 13 13
13 13 14 14 14 14 15 15 14 13 13 14 14 13 12 12 12 11 10 9 8 9 9 9 9 10 10 10 10 11 12 13 15 15 14 14 14 14 14 14 13 13 13
13 13 13 14 14 14 14 14 14 14 14 14 14 13 13 12 12 12 11 9 9 8 8 9 9 9 9 10 10 10 11 11 13 13 14 13 14 14 13 13 13 12 12
12 12 13 13 13 13 13 13 14 14 14 14 14 13 13 13 12 12 11 11 10 10 9 8 8 9 9 9 9 10 10 10 11 12 13 13 13 13 13 13 13 12 12
Height
811 813 818 823 829 833 836 839 842 844 846 848 850 853 854 856 857 859 860 860 860 861 862 862 864 862 863 863 862 862 861 860 857 851 849 845 840 837 834 831 827 824 822
802 807 812 819 823 828 830 834 837 840 842 845 847 848 850 851 853 853 855 856 856 858 859 859 858 859 858 858 858 858 857 856 853 846 843 840 838 834 830 825 823 819 816
796 802 807 813 817 821 826 829 833 836 838 840 842 844 845 846 848 849 849 850 852 852 853 854 853 853 853 853 853 852 852 850 849 844 837 836 831 829 825 822 818 814 810
792 797 801 805 809 814 819 824 827 830 833 836 838 839 841 842 843 844 845 845 846 848 848 848 848 848 848 848 848 847 846 844 842 839 834 829 827 823 821 816 812 810 807
785 791 796 801 805 809 813 817 822 825 828 830 833 835 836 837 839 840 841 842 842 842 843 842 843 842 842 842 842 840 840 837 834 832 829 823 818 815 813 810 807 806 803
782 785 790 796 801 804 807 811 815 819 821 824 826 828 830 831 832 833 836 837 837 837 836 836 836 835 834 833 832 832 832 830 826 825 821 816 811 809 807 804 802 801 798
779 782 785 788 793 797 800 804 807 810 813 815 817 820 821 822 823 825 828 830 830 830 829 828 828 828 826 825 823 822 820 819 817 816 813 809 805 803 802 799 797 796 794
777 780 783 784 789 790 793 795 799 802 805 806 808 809 811 811 813 815 818 820 821 820 820 819 818 816 816 816 816 815 813 810 808 805 803 799 798 796 794 793 791 790 789
777 778 781 783 786 787 788 791 793 795 796 798 799 799 801 801 803 805 808 811 812 810 809 808 808 807 805 805 806 805 803 800 799 796 793 791 789 788 787 787 784 784 782
776 778 777 778 781 783 785 786 787 788 790 792 791 791 791 792 794 796 799 801 802 801 800 799 797 797 796 796 797 798 796 792 791 789 787 784 783 781 781 781 781 781 780
759 780 776 773 775 777 780 782 784 784 785 784 784 785 785 785 784 786 789 791 792 792 791 790 789 788 788 788 788 788 785 786 786 784 781 780 778 776 776 774 774 774 773
771 783 778 770 774 778 778 778 779 779 778 778 778 777 777 777 777 777 780 781 783 784 782 780 779 780 780 779 779 778 778 779 778 776 774 772 771 769 770 768 766 767 768
781 778 767 771 776 780 777 776 776 775 773 773 770 769 769 771 771 770 770 770 770 773 771 770 771 771 773 772 771 770 770 770 769 768 763 763 763 763 762 763 763 763 763
783 780 778 780 780 778 777 777 775 772 769 766 765 765 765 765 764 763 762 762 760 761 760 762 762 762 764 764 764 763 761 763 760 759 757 757 757 757 758 758 759 758 761
789 784 784 785 780 777 777 775 773 770 766 764 763 765 762 760 761 760 760 759 758 756 758 758 757 756 755 755 754 753 752 753 754 752 750 752 752 753 754 755 754 757 758
793 786 782 781 780 780 779 775 773 770 769 767 765 762 759 758 757 756 753 752 750 751 752 749 751 749 748 748 748 747 746 745 744 744 745 747 748 748 749 750 751 753 757
792 790 784 778 781 781 779 777 775 771 769 766 763 760 757 755 754 752 749 746 745 744 742 743 742 742 741 741 741 741 740 740 739 739 742 743 742 743 744 746 747 748 753
785 791 789 781 780 780 780 779 778 773 768 766 763 760 756 752 751 748 745 742 741 739 738 737 737 735 734 734 734 734 734 735 734 735 734 734 736 738 739 741 741 738 747
789 784 787 784 786 781 781 782 779 771 769 768 765 761 757 753 748 747 744 741 740 740 739 736 734 733 733 730 729 730 730 730 730 728 727 728 729 733 735 736 738 739 742
784 787 787 789 786 779 778 782 779 774 767 768 764 762 759 756 750 744 743 742 741 740 737 735 731 730 728 726 725 722 722 724 725 723 722 723 725 726 728 730 733 734 737
788 786 785 785 784 782 781 779 774 771 768 768 765 764 760 759 754 749 745 744 742 741 738 736 732 729 728 726 725 719 720 720 721 719 720 720 721 721 723 726 729 733 735
783 782 782 783 782 780 777 773 771 767 768 768 766 764 762 761 757 752 748 746 743 740 738 736 734 731 728 725 723 721 720 719 717 717 717 717 719 718 720 723 727 730 734
779 777 778 776 777 776 772 770 768 766 765 766 765 765 763 761 757 753 751 748 745 742 739 737 735 733 730 726 725 723 720 718 717 717 717 717 718 718 719 722 725 728 729
778 775 775 774 773 773 770 769 769 768 767 766 766 765 763 762 759 755 752 748 745 745 743 739 737 735 731 727 726 725 722 719 718 717 717 717 717 717 719 720 723 725 727
775 774 774 772 769 769 770 767 765 766 766 764 763 761 760 760 756 754 752 749 744 744 746 744 741 738 734 729 726 726 724 721 718 716 716 717 718 717 718 719 720 722 725
773 772 771 770 768 767 766 766 765 763 763 761 759 758 758 756 756 753 749 748 747 748 744 742 742 741 738 734 731 727 722 722 721 718 716 715 715 715 715 717 717 718 720
Wind_Speed
29 29 31 29 26 25 21 18 20 20 18 17 15 15 14 12 11 12 11 9 9 8 8 8 9 8 6 6 7 7 8 8 13 19 19 20 24 21 22 19 19 19 18
33 33 32 28 30 25 26 22 18 20 18 20 18 17 16 15 14 14 14 12 11 11 11 11 10 8 9 10 10 11 12 12 15 22 21 21 19 20 21 21 17 15 16
30 29 27 26 26 28 26 24 22 20 19 17 18 19 18 17 15 15 16 16 15 14 14 14 14 12 13 13 13 14 15 15 17 20 26 20 18 17 20 19 18 17 14
29 28 26 28 31 28 28 26 27 26 22 21 20 20 20 20 19 19 17 17 17 16 16 16 16 16 16 15 16 16 16 17 18 19 21 22 20 19 18 19 18 14 13
28 26 26 26 27 27 28 26 27 26 26 26 23 24 23 20 20 19 18 18 19 19 19 20 20 21 23 21 19 20 18 19 19 19 20 22 22 20 21 22 20 18 14
26 27 27 25 27 30 27 27 24 26 27 27 27 25 24 25 26 28 27 22 21 22 23 23 22 24 26 27 27 27 26 22 24 21 23 23 25 23 22 20 18 15 8
22 24 25 27 28 25 25 22 23 26 28 27 30 30 31 33 36 38 37 35 29 28 28 27 27 28 28 25 25 26 29 29 30 29 26 27 26 24 20 18 16 13 12
19 19 17 21 26 23 25 24 25 22 24 29 30 33 33 35 40 43 41 41 34 35 35 34 32 34 32 32 29 27 28 27 25 23 23 26 23 20 16 15 15 14 17
12 14 15 16 18 17 18 21 21 22 24 28 28 30 32 37 39 38 36 29 28 32 32 34 33 32 35 36 31 27 27 28 27 28 28 25 24 22 22 17 15 10 6
5 3 7 8 7 10 15 20 19 20 23 25 25 26 27 32 34 35 33 25 25 27 27 28 32 35 36 34 31 25 25 28 24 21 19 20 21 23 21 22 16 13 7
13 7 2 2 6 9 12 14 16 19 23 24 25 26 25 25 29 33 32 26 25 25 26 26 26 28 31 29 28 26 27 25 22 21 20 19 18 17 16 15 15 14 12
8 5 3 6 5 6 8 9 12 16 21 25 25 26 24 26 29 29 31 32 30 28 28 28 27 27 30 30 29 30 29 27 23 21 22 21 22 20 16 15 15 13 11
9 10 15 8 5 7 7 6 9 10 20 19 18 19 21 23 22 24 29 33 34 35 32 29 30 30 31 30 30 30 29 27 23 23 24 24 23 17 14 12 11 11 11
11 12 12 9 9 7 7 7 6 5 8 7 11 15 18 19 18 20 25 30 32 32 34 35 35 31 30 30 30 27 30 25 24 23 21 18 17 17 13 13 12 12 12
7 8 10 9 10 11 10 9 8 7 8 8 9 11 12 13 14 15 19 21 19 19 21 19 18 17 18 18 21 26 25 22 22 20 17 15 17 16 15 15 13 11 9
8 8 9 11 12 12 12 11 10 7 6 4 9 12 10 10 16 23 26 28 28 27 24 26 20 18 16 18 18 17 20 20 20 19 13 13 15 18 18 16 15 10 9
10 10 8 9 10 13 13 11 13 11 9 8 11 10 10 14 16 17 17 19 24 26 22 20 20 20 21 20 18 17 17 18 14 13 13 13 16 19 19 18 17 13 11
8 10 8 9 8 10 12 13 11 10 12 13 13 15 15 10 9 9 12 13 8 11 13 15 17 17 19 20 18 15 15 14 14 14 14 18 17 19 20 20 20 17 12
1 4 7 6 5 5 8 9 10 10 11 12 13 13 16 13 8 9 10 9 10 9 9 9 10 12 18 19 18 17 16 15 16 15 15 17 16 15 12 10 13 13 15
3 4 3 4 4 4 5 6 7 9 10 11 13 16 18 13 11 13 13 13 11 10 11 9 9 9 8 8 9 10 12 15 16 14 14 12 13 14 12 12 15 18 19
5 4 4 3 4 3 4 4 6 8 10 11 11 12 15 12 11 10 10 11 10 11 11 10 8 7 7 5 3 4 4 5 7 6 7 8 11 12 12 13 14 15 13
5 5 4 4 4 5 6 6 7 7 8 9 10 11 14 10 10 10 10 9 10 9 8 8 10 8 7 9 8 6 4 4 4 2 1 4 7 8 10 12 12 15 12
7 6 6 5 6 6 6 6 7 8 8 8 9 9 10 10 10 10 9 9 9 9 8 7 8 9 9 10 9 9 7 6 4 2 1 3 5 7 8 10 10 12 15
6 6 6 6 6 7 6 6 6 6 5 6 7 7 7 8 7 6 6 6 8 9 10 8 8 9 10 11 11 11 10 6 1 1 1 3 4 6 7 8 9 12 14
5 6 7 7 7 7 9 8 7 8 9 8 8 7 7 7 6 5 5 4 4 4 7 9 9 8 9 10 10 11 10 8 5 1 3 4 4 5 6 7 9 10 13
8 7 7 9 9 9 9 10 11 10 11 11 11 10 10 8 7 5 4 4 4 5 3 4 7 8 9 9 10 11 9 7 5 3 2 4 5 5 6 7 8 10 13
Wind_Direction
207 206 209 212 216 218 221 230 230 230 236 234 233 231 233 237 241 245 247 245 253 253 255 258 263 276 279 275 264 262 265 254 272 294 290 299 307 312 311 308 303 298 289
208 209 211 215 217 219 222 226 233 236 241 242 240 237 238 244 248 246 244 243 244 248 253 253 263 267 272 274 273 269 273 272 272 289 295 296 286 296 300 307 305 295 283
205 210 210 212 216 219 224 225 231 236 242 247 240 239 241 248 254 261 249 245 250 253 254 256 263 264 267 271 272 276 281 282 277 275 292 298 290 299 301 297 295 297 292
204 207 208 213 221 219 223 228 234 238 240 245 248 248 249 253 256 262 261 251 252 256 258 259 260 261 262 267 272 274 279 278 281 275 278 291 292 295 291 293 304 300 294
198 201 209 215 220 222 223 229 237 239 240 241 245 250 253 252 255 255 258 258 256 259 262 264 266 265 270 270 270 275 274 278 280 283 281 289 292 295 297 300 295 298 296
195 199 205 212 222 230 231 233 237 240 241 240 241 244 247 250 253 257 259 258 262 262 264 265 265 272 274 275 275 276 276 269 273 274 282 283 285 288 296 294 293 294 296
201 203 208 216 222 222 229 230 232 240 245 243 244 244 246 249 253 257 261 262 260 262 262 264 268 270 272 268 271 280 281 279 272 268 269 272 281 286 292 288 283 267 258
207 210 211 217 223 231 234 235 240 240 241 245 247 247 247 250 254 261 262 262 258 260 260 261 262 265 265 265 270 273 272 274 272 271 260 267 271 276 274 274 274 271 271
209 214 222 228 227 225 231 236 238 237 242 242 242 246 246 256 261 263 263 253 256 258 260 259 258 260 266 272 266 267 271 272 276 274 271 272 277 275 268 264 256 246 237
153 234 230 239 236 230 238 241 245 244 246 248 250 247 248 255 266 269 267 251 254 258 262 262 263 261 268 274 267 264 267 269 275 277 274 280 276 274 270 261 254 239 221
56 320 318 311 297 275 268 260 257 256 255 254 255 255 255 254 259 267 267 254 249 255 258 262 263 264 270 279 278 263 258 270 276 280 278 275 272 268 263 258 251 238 227
36 296 338 38 339 300 279 275 269 259 255 257 256 256 258 257 257 262 264 263 258 252 259 261 263 265 267 279 280 276 279 280 271 267 269 270 275 270 260 242 244 229 234
22 6 23 16 351 310 312 301 294 299 255 251 248 253 259 263 263 262 271 268 266 260 255 261 262 265 269 273 275 273 273 269 267 263 261 267 273 269 253 234 228 218 220
19 20 16 0 349 330 314 295 296 326 353 330 275 260 268 275 274 272 271 270 269 262 266 264 263 264 263 264 266 270 272 265 257 261 269 277 274 255 243 229 216 208 204
22 36 27 7 1 356 342 328 324 340 348 11 3 318 305 301 287 281 267 273 271 272 278 275 267 261 261 261 262 270 273 261 263 266 265 269 265 260 241 236 215 209 209
340 22 28 18 8 358 349 346 340 342 347 337 354 356 341 322 299 280 271 267 270 268 256 249 255 261 256 261 262 261 263 259 253 252 262 271 255 251 240 227 215 207 221
349 345 10 34 13 355 347 346 337 344 336 328 349 350 350 334 326 313 300 295 280 270 264 249 247 251 257 257 256 257 264 263 255 248 264 259 262 253 231 212 210 200 205
5 341 347 8 13 3 350 340 335 341 340 338 345 359 355 344 344 330 318 322 326 311 288 272 268 268 265 265 258 258 264 263 257 256 264 265 253 236 217 208 204 189 190
359 39 346 350 327 352 349 334 338 350 351 338 340 351 358 14 6 2 11 20 2 349 328 324 322 299 284 270 263 265 269 265 263 250 256 256 233 219 217 208 205 202 197
332 346 347 299 322 357 354 325 335 347 2 352 354 352 346 345 8 21 19 15 7 353 349 343 331 319 304 298 290 268 269 273 264 260 257 246 237 230 224 217 212 195 193
258 260 323 323 329 334 316 333 351 358 360 355 359 352 350 343 353 9 17 16 15 2 355 348 354 349 337 345 324 7 324 275 255 248 245 245 236 223 222 221 211 208 185
276 265 267 288 308 323 333 343 348 355 349 347 352 352 3 360 357 360 6 7 8 13 9 12 9 21 26 22 27 49 57 65 64 60 213 228 225 212 211 207 194 186 190
273 253 258 279 302 314 325 335 340 340 338 333 333 339 349 356 2 6 358 354 5 13 27 21 20 19 32 32 29 29 31 31 34 65 307 217 206 193 191 191 187 185 187
283 258 257 276 287 300 309 311 310 309 309 305 305 311 318 324 333 345 359 6 8 11 16 26 31 27 28 29 19 12 12 11 352 165 140 219 199 189 194 203 211 216 206
298 269 270 278 291 295 301 305 296 296 298 299 295 295 296 298 311 321 330 339 16 8 359 5 7 12 13 20 20 13 358 359 1 257 204 204 203 188 194 206 207 209 210
302 296 287 276 277 277 280 290 295 295 291 293 291 289 284 282 284 294 304 311 321 318 336 345 348 349 354 9 13 12 7 355 332 336 256 230 226 225 221 228 226 224 218